Back to catalog

BREEZE-M DEB

TANK

AliveHEO
NORAD 36133·DEBRIS·🇷🇺 Russia

Launched Dec 29, 2009 from Baikonur Cosmodrome

Loading…

Next Passes (next 24 hours)

TLE

FreshSource: Space-Track

Epoch: Sep 14, 2026, 02:34 UTC

1 36133U 09075C   26257.10758288  .00000301  00000-0  44723-3 0  9995
2 36133  45.8190 159.2470 5109663  24.4184 353.0996  5.23729722317540

Track BREEZE-M DEB in real time with AllMySat

Download on the App Store